#timestamp,LO_Frequency,Hit,StdDev 
1542024015.2,286047000.0,N
1542024035.1,286046998.1,N
1542024036.0,286046998.1,N
1542024055.8,286047001.2,N
1542024075.6,286047000.6,N
1542024095.5,286047000.6,N
1542024115.3,286046998.8,N
1542024135.2,286046999.1,N
1542024155.9,286046999.3,N
1542024175.7,286046998.3,N
1542024195.6,286046997.0,N
1542024215.4,286046996.5,N
1542024235.2,286046997.3,N
1542024255.1,286046997.3,N
1542024256.0,286046997.3,N
1542024275.8,286046998.8,N
1542024295.7,286046996.6,N
1542024315.5,286046997.6,N
1542024335.3,286046996.5,N
1542024355.2,286046996.7,N
1542024375.9,286046998.0,N
1542024395.7,286046996.8,N
1542024415.6,286046997.4,N
1542024435.4,286046997.9,N
1542024455.2,286046995.8,N
1542024475.1,286046997.6,N
1542024476.0,286046997.6,N
1542024495.8,286046995.6,N
1542024515.7,286046995.9,N
1542024535.5,286046993.8,Y
1542024555.3,286046999.5,P
1542024575.2,286046999.6,N
1542024595.0,286046998.4,N
1542024595.9,286046998.4,N
1542024615.8,286046998.6,N
1542024635.6,286046999.4,N
1542024655.4,286046997.3,Y
1542024675.3,286046998.9,P
1542024695.1,286046999.5,P
1542024715.8,286046997.2,P
1542024735.7,286046994.9,Y
1542024755.5,286046996.6,P
1542024775.4,286047001.2,N
1542024795.2,286046998.6,N
1542024815.0,286046998.1,N
1542024815.9,286046998.1,N
1542024835.8,286046999.0,N
1542024855.6,286046998.7,N
1542024875.4,286046996.6,N
1542024895.3,286046996.5,N
1542024915.1,286046997.2,N
1542024935.9,286046997.8,N
1542024955.7,286046996.6,N
1542024975.5,286046999.4,N
1542024995.4,286046998.4,N
1542025015.2,286047000.8,N
1542025035.0,286046996.9,N
1542025035.9,286046996.9,N
1542025055.8,286046997.3,N
1542025075.6,286046997.6,N
1542025095.4,286046997.3,N
1542025115.3,286046997.3,N
1542025135.1,286046998.0,N
1542025155.9,286046997.7,N
1542025175.7,286046997.1,N
1542025195.5,286046997.7,N
1542025215.4,286046995.7,Y
1542025235.2,286046997.7,P
1542025255.0,286046995.7,P
1542025255.9,286046995.7,P
1542025275.8,286046996.1,Y
1542025295.6,286046996.7,P
1542025315.5,286046997.2,P
1542025335.3,286046999.6,N
1542025355.1,286046999.5,N
1542025375.9,286046998.1,N
1542025395.7,286047000.3,N
1542025415.5,286046999.0,N
1542025435.4,286046998.9,N
1542025455.2,286046996.5,N
1542025475.1,286046999.1,N
1542025476.0,286046999.1,N
1542025495.8,286046999.6,N
1542025515.6,286046997.3,N
1542025535.5,286046998.9,N
1542025555.3,286046999.4,N
1542025575.1,286046997.4,N
1542025595.9,286046997.6,N
1542025615.7,286046996.5,Y
1542025635.6,286046998.5,P
1542025655.4,286047000.5,P
1542025675.2,286047000.2,N
1542025695.1,286047000.8,N
1542025696.0,286047000.8,N
1542025715.8,286047000.5,N
1542025735.7,286046999.2,N
1542025755.5,286046997.5,N
1542025775.3,286046997.7,N
1542025795.2,286046996.6,N
1542025815.0,286046999.1,N
1542025815.9,286046999.1,N
1542025835.8,286046996.5,N
1542025855.6,286046997.7,N
1542025875.4,286046997.0,N
1542025895.3,286046999.0,N
1542025915.1,286046999.4,N
1542025935.8,286046998.3,N
1542025955.7,286046996.5,N
1542025975.5,286046996.6,N
1542025995.3,286046997.3,N
1542026015.2,286046997.8,N
1542026035.0,286046997.8,N
1542026035.9,286046997.8,N
1542026055.8,286046995.1,Y
1542026075.6,286046997.5,P
1542026095.4,286046999.4,N
1542026115.3,286046999.0,N
1542026135.1,286046996.7,Y
1542026155.9,286046999.1,P
1542026175.7,286046997.7,P
1542026195.5,286046995.0,P
1542026215.4,286046997.2,N
1542026235.2,286046995.3,Y
1542026255.0,286046998.6,P
1542026255.9,286046998.6,N
1542026275.8,286046998.5,N
1542026295.6,286046998.4,Y
1542026315.5,286047002.7,P
1542026335.3,286047001.9,N
1542026355.1,286047002.2,N
1542026375.9,286047001.6,N
1542026395.7,286047004.3,N
1542026415.5,286047003.8,N
1542026435.4,286047001.4,N
1542026455.2,286047004.2,N
1542026475.1,286047001.8,N
1542026476.0,286047001.8,N
1542026495.8,286047002.0,N
1542026515.6,286047001.4,N
1542026535.5,286047001.3,N
1542026555.3,286047002.5,N
1542026575.1,286047001.6,N
1542026595.9,286047001.8,N
1542026615.7,286047001.8,N
1542026635.5,286046999.7,N
1542026655.4,286047002.8,N
1542026675.2,286047000.2,N
1542026695.1,286047002.1,N
1542026696.0,286047002.1,N
1542026715.8,286046999.8,N
1542026735.6,286047000.9,N
1542026755.5,286046998.7,N
1542026775.3,286047000.8,N
1542026795.1,286047001.2,N
1542026815.9,286047001.0,N
1542026835.7,286046999.8,N
1542026855.6,286046998.2,N
1542026875.4,286047000.6,N
1542026895.2,286047000.4,N
1542026915.1,286046999.9,N
1542026916.0,286046999.9,N
1542026935.8,286046999.9,N
1542026955.6,286046999.9,N
1542026975.5,286047000.9,N
1542026995.3,286047000.4,N
1542027015.2,286047000.9,N
1542027035.9,286047000.6,N
1542027055.7,286047000.0,N
1542027075.6,286046998.9,N
1542027095.4,286046998.9,N
1542027115.2,286046998.7,N
1542027135.1,286046998.3,N
1542027136.0,286046998.3,N
1542027155.8,286047001.2,N
1542027175.7,286046998.8,N
1542027195.5,286046998.3,N
1542027215.3,286046998.1,N
1542027235.2,286046998.1,N
1542027255.0,286046998.7,N
1542027255.9,286046998.7,N
1542027275.7,286047002.4,N
1542027295.6,286047000.9,N
1542027315.4,286046998.4,N
1542027335.3,286046998.3,N
1542027355.1,286046999.3,N
1542027356.0,286046999.3,N
1542027375.8,286046999.0,N
1542027395.7,286046998.8,N
1542027415.5,286046996.6,Y
1542027435.4,286046999.1,P
1542027455.2,286046999.6,N
1542027475.0,286046998.7,P
1542027475.9,286046998.7,Y
1542027495.8,286046998.2,P
1542027515.6,286046998.6,N
1542027535.4,286046996.8,P
1542027555.3,286046997.2,Y
1542027575.1,286046996.9,P
1542027595.9,286047000.8,N
